Change the Weather History Date:

Friday, December 27, 2013

  Actual Average (KMSN) Record (KMSN)
Temperature  
Mean Temperature 22 °F 20 °F  
Max Temperature 38 °F 27 °F 50 °F (2003)
Min Temperature 5 °F 13 °F -26 °F (1886)
Degree Days  
Heating Degree Days 44 45  
Month to date heating degree days 1120  
Since 1 July heating degree days 2699  
Cooling Degree Days 0 0  
Month to date cooling degree days 0  
Year to date cooling degree days 568  
Moisture  
Dew Point 20 °F    
Average Humidity 77    
Maximum Humidity 96    
Minimum Humidity 67    
Precipitation  
Precipitation 0.00 in 0.04 in 2.54 in (1904)
Month to date precipitation 1.57  
Year to date precipitation 34.31  
Snow  
Snow 0.00 in 0.40 in 7.00 in (1904)
Month to date snowfall 11.8  
Since 1 July snowfall 15.9  
Snow Depth -    
Sea Level Pressure  
Sea Level Pressure 30.11 in    
Wind  
Wind Speed 4 mph (SW)    
Max Wind Speed 16 mph    
Max Gust Speed 25 mph    
Visibility 7 miles    
Events      
T = Trace of Precipitation, MM = Missing Value Source: NWS Daily Summary

Daily Weather History Graph

Daily Weather History Graph

Search for Another Location

Airport or City:

Trip Planner

Search our weather history database for the weather conditions in past years. The results will help you decide how hot, cold, wet, or windy it might be!

Date:

Astronomy

Dec. 27, 2013 Rise Set
Actual Time 7:29 AM CST 4:29 PM CST
Civil Twilight 6:56 AM CST 5:02 PM CST
Nautical Twilight 6:20 AM CST 5:38 PM CST
Astronomical Twilight 5:46 AM CST 6:12 PM CST
Moon 1:55 AM CST (12/27) 12:45 PM CST (12/27)
Length of Visible Light 10h 05m
Length of Day
9h 00m
Waning Crescent, 28% of the Moon is Illuminated
Dec 27
Waning Crescent
Jan 1
New
Jan 7
First Quarter
Jan 15
Full
Jan 23
Last Quarter

Hourly Weather History & Observations

Time (CST) Temp. Windchill Dew Point Humidity Pressure Visibility Wind Dir Wind Speed Gust Speed Precip Events Conditions
12:15 AM 27.5 °F - 22.5 °F 81% 30.17 in 10.0 mi Calm Calm - N/A   Overcast
12:35 AM 26.6 °F - 22.1 °F 83% 30.18 in 10.0 mi Calm Calm - N/A   Overcast
12:55 AM 25.5 °F - 22.1 °F 87% 30.17 in 10.0 mi Calm Calm - N/A   Overcast
1:15 AM 26.4 °F - 22.8 °F 86% 30.18 in 10.0 mi Calm Calm - N/A   Overcast
1:35 AM 25.3 °F - 22.3 °F 88% 30.18 in 10.0 mi Calm Calm - N/A   Overcast
1:55 AM 23.9 °F - 21.4 °F 90% 30.18 in 7.0 mi Calm Calm - N/A   Overcast
2:15 AM 23.5 °F - 21.9 °F 94% 30.19 in 7.0 mi Calm Calm - N/A   Overcast
2:35 AM 19.6 °F - 17.4 °F 91% 30.20 in 5.0 mi Calm Calm - N/A   Overcast
2:55 AM 18.1 °F - 16.2 °F 92% 30.20 in 0.5 mi Calm Calm - N/A   Mostly Cloudy
3:15 AM 15.8 °F - 13.6 °F 91% 30.20 in 0.2 mi Calm Calm - N/A   Overcast
3:35 AM 12.2 °F - 9.3 °F 88% 30.19 in 0.2 mi Calm Calm - N/A   Overcast
3:55 AM 9.5 °F - 5.4 °F 83% 30.20 in 0.2 mi Calm Calm - N/A   Overcast
4:15 AM 9.3 °F - 5.7 °F 85% 30.20 in 0.2 mi Calm Calm - N/A   Overcast
4:35 AM 7.0 °F - 2.7 °F 82% 30.19 in 0.2 mi Calm Calm - N/A   Overcast
4:55 AM 7.9 °F - 4.1 °F 85% 30.19 in 0.2 mi Calm Calm - N/A   Overcast
5:15 AM 6.1 °F - 2.1 °F 84% 30.20 in 0.2 mi Calm Calm - N/A   Overcast
5:35 AM 6.4 °F - 2.8 °F 85% 30.20 in 0.2 mi Calm Calm - N/A   Overcast
5:55 AM 5.7 °F - 1.4 °F 82% 30.20 in 0.2 mi Calm Calm - N/A   Overcast
6:15 AM 5.5 °F - 1.4 °F 83% 30.21 in 0.2 mi Calm Calm - N/A   Overcast
6:35 AM 6.3 °F - 2.7 °F 85% 30.22 in 0.2 mi Calm Calm - N/A   Overcast
6:55 AM 6.8 °F - 2.7 °F 83% 30.22 in 0.2 mi Calm Calm - N/A   Overcast
7:15 AM 7.3 °F - 3.4 °F 84% 30.22 in 0.2 mi Calm Calm - N/A   Overcast
7:35 AM 7.2 °F - 3.0 °F 83% 30.21 in 0.2 mi Calm Calm - N/A   Overcast
7:55 AM 6.4 °F - 2.3 °F 83% 30.22 in 0.2 mi Calm Calm - N/A   Overcast
8:15 AM 7.7 °F - 3.9 °F 85% 30.21 in 0.2 mi Calm Calm - N/A   Mostly Cloudy
8:35 AM - - - N/A% 30.21 in 4.0 mi Calm Calm - N/A   Scattered Clouds
8:55 AM - - - N/A% 30.21 in 2.5 mi Calm Calm - N/A   Clear
9:15 AM - - - N/A% 30.21 in 4.0 mi Calm Calm - N/A   Clear
9:35 AM - - - N/A% 30.21 in 5.0 mi Calm Calm - N/A   Clear
9:55 AM - - - N/A% 30.20 in 4.0 mi Calm Calm - N/A   Clear
10:15 AM - - - N/A% 30.20 in 7.0 mi South 5.8 mph - N/A   Clear
10:35 AM - - - N/A% 30.19 in 7.0 mi SSW 8.1 mph - N/A   Clear
10:55 AM - - - N/A% 30.18 in 7.0 mi South 5.8 mph - N/A   Clear
11:15 AM - - - N/A% 30.17 in 10.0 mi SSW 9.2 mph - N/A   Clear
11:35 AM 28.4 °F 19.7 °F 27.5 °F 96% 30.15 in 10.0 mi SSW 9.2 mph - N/A   Clear
11:55 AM 30.0 °F 22.4 °F 25.7 °F 84% 30.14 in 10.0 mi SSW 8.1 mph - N/A   Clear
12:15 PM 31.3 °F 26.6 °F 24.3 °F 75% 30.13 in 10.0 mi SW 4.6 mph - N/A   Clear
12:35 PM 32.0 °F 24.8 °F 24.3 °F 73% 30.12 in 10.0 mi SSW 8.1 mph - N/A   Clear
12:55 PM 32.2 °F 25.8 °F 24.6 °F 74% 30.11 in 10.0 mi SSW 6.9 mph - N/A   Clear
1:15 PM 32.9 °F 24.7 °F 24.8 °F 72% 30.10 in 10.0 mi SSW 10.4 mph - N/A   Clear
1:35 PM 33.6 °F 26.2 °F 24.8 °F 70% 30.08 in 10.0 mi SW 9.2 mph - N/A   Clear
1:55 PM 34.3 °F 27.7 °F 25.2 °F 69% 30.07 in 10.0 mi SW 8.1 mph - N/A   Clear
2:15 PM 34.3 °F 25.0 °F 25.3 °F 70% 30.05 in 10.0 mi SSW 13.8 mph 18.4 mph N/A   Clear
2:35 PM 33.3 °F 23.2 °F 25.2 °F 72% 30.05 in 10.0 mi SSW 15.0 mph 18.4 mph N/A   Clear
2:55 PM 33.8 °F 25.3 °F 25.5 °F 72% 30.05 in 10.0 mi SW 11.5 mph - N/A   Clear
3:15 PM 34.2 °F 25.2 °F 25.7 °F 71% 30.04 in 10.0 mi SSW 12.7 mph - N/A   Clear
3:35 PM 33.4 °F 24.8 °F 25.7 °F 73% 30.03 in 10.0 mi SSW 11.5 mph - N/A   Scattered Clouds
3:55 PM 33.3 °F 22.8 °F 25.7 °F 74% 30.01 in 10.0 mi South 16.1 mph 20.7 mph N/A   Mostly Cloudy
4:15 PM 33.4 °F 23.1 °F 26.1 °F 74% 30.00 in 10.0 mi SSW 16.1 mph - N/A   Overcast
4:30 PM 34.0 °F 24.2 °F 26.2 °F 73% 30.00 in 10.0 mi SSW 15.0 mph - N/A   Overcast
4:55 PM 34.5 °F 24.5 °F 26.4 °F 72% 30.00 in 10.0 mi SW 16.1 mph - N/A   Overcast
5:15 PM 34.7 °F 25.1 °F 26.2 °F 71% 30.01 in 10.0 mi SW 15.0 mph - N/A   Scattered Clouds
5:35 PM 34.7 °F 25.9 °F 26.1 °F 71% 30.00 in 10.0 mi SW 12.7 mph 21.9 mph N/A   Clear
5:55 PM 34.9 °F 25.3 °F 26.1 °F 70% 30.00 in 10.0 mi SW 15.0 mph 25.3 mph N/A   Clear
6:15 PM 35.1 °F 25.9 °F 26.4 °F 71% 29.99 in 10.0 mi SW 13.8 mph 21.9 mph N/A   Clear
6:35 PM 35.6 °F 26.2 °F 26.6 °F 70% 30.00 in 10.0 mi SW 15.0 mph 21.9 mph N/A   Clear
6:55 PM 35.8 °F 26.9 °F 26.6 °F 69% 30.00 in 10.0 mi SW 13.8 mph 19.6 mph N/A   Clear
7:15 PM 36.1 °F 27.7 °F 27.0 °F 69% 30.00 in 10.0 mi WSW 12.7 mph 23.0 mph N/A   Clear
7:35 PM 36.5 °F 27.8 °F 27.1 °F 69% 30.00 in 10.0 mi WSW 13.8 mph 24.2 mph N/A   Clear
7:55 PM 36.9 °F 28.2 °F 27.1 °F 68% 29.99 in 10.0 mi WSW 13.8 mph 21.9 mph N/A   Clear
8:15 PM 36.9 °F 27.8 °F 27.1 °F 68% 29.99 in 10.0 mi WSW 15.0 mph 19.6 mph N/A   Clear
8:35 PM 36.9 °F 28.2 °F 27.3 °F 68% 29.98 in 10.0 mi WSW 13.8 mph 19.6 mph N/A   Clear
8:55 PM 37.4 °F 29.8 °F 27.7 °F 68% 29.99 in 10.0 mi WSW 11.5 mph 18.4 mph N/A   Clear
9:15 PM 37.6 °F 29.1 °F 27.9 °F 68% 29.98 in 10.0 mi WSW 13.8 mph - N/A   Clear
9:35 PM 37.9 °F 30.0 °F 28.0 °F 68% 29.99 in 10.0 mi WSW 12.7 mph 18.4 mph N/A   Clear
9:55 PM 37.8 °F 30.7 °F 28.0 °F 68% 30.00 in 10.0 mi WSW 10.4 mph 17.3 mph N/A   Clear
10:15 PM 37.8 °F 30.7 °F 28.4 °F 69% 30.00 in 10.0 mi WSW 10.4 mph - N/A   Clear
10:35 PM 37.9 °F 32.1 °F 28.4 °F 69% 30.01 in 10.0 mi WSW 8.1 mph - N/A   Clear
10:55 PM 38.1 °F 32.9 °F 28.4 °F 68% 30.01 in 10.0 mi WSW 6.9 mph - N/A   Clear
11:15 PM 38.5 °F 35.0 °F 28.4 °F 67% 30.01 in 10.0 mi SW 4.6 mph - N/A   Clear
11:35 PM 37.0 °F - 28.4 °F 71% 30.02 in 10.0 mi Calm Calm - N/A   Clear
11:55 PM 35.1 °F - 27.3 °F 73% 30.02 in 10.0 mi Calm Calm - N/A   Clear